• In Slovakia
  • List of Countries
  • For 7 days
  • Water Temperature
  • Satellite Maps
  • Weather Map
  • Weather Widgets
  • user-avatar
    Login

    Hourly Weather Malanje

    Today, 21 September, Friday

    Time Temperature Precipitation Wind Pressure Humidity
    00:00 +24°C° 0.1 mm 3 mps 665 mmHg 62%
    01:00 +24°C° 0.1 mm 3 mps 665 mmHg 68%
    02:00 +23°C° 0 mm 2 mps 664 mmHg 71%
    03:00 +21°C° 0 mm 2 mps 664 mmHg 73%
    04:00 +21°C° 0 mm 2 mps 664 mmHg 76%
    05:00 +22°C° 0 mm 1 mps 664 mmHg 74%
    06:00 +22°C° 0 mm 1 mps 664 mmHg 72%
    07:00 +23°C° 0 mm 1 mps 665 mmHg 70%
    08:00 +27°C° 0 mm 1 mps 666 mmHg 57%
    09:00 +31°C° 0 mm 1 mps 667 mmHg 45%
    10:00 +35°C° 0 mm 1 mps 668 mmHg 32%
    11:00 +36°C° 0 mm 1 mps 667 mmHg 28%
    12:00 +37°C° 0 mm 1 mps 666 mmHg 24%
    13:00 +39°C° 0 mm 2 mps 666 mmHg 19%
    14:00 +37°C° 0 mm 1 mps 665 mmHg 20%
    15:00 +36°C° 0 mm 1 mps 664 mmHg 21%
    16:00 +34°C° 0 mm 1 mps 664 mmHg 22%
    17:00 +33°C° 0 mm 1 mps 664 mmHg 24%
    18:00 +32°C° 0 mm 1 mps 664 mmHg 26%
    19:00 +31°C° 0 mm 1 mps 664 mmHg 28%
    20:00 +30°C° 0 mm 2 mps 664 mmHg 34%
    21:00 +29°C° 0 mm 3 mps 664 mmHg 40%
    22:00 +27°C° 0 mm 3 mps 665 mmHg 45%
    23:00 +26°C° 0 mm 3 mps 664 mmHg 52%

    Tomorrow, 22 September, Saturday

    Time Temperature Precipitation Wind Pressure Humidity
    00:00 +25°C° 0 mm 3 mps 664 mmHg 59%
    01:00 +24°C° 0 mm 3 mps 663 mmHg 65%
    02:00 +22°C° 0 mm 3 mps 663 mmHg 68%
    03:00 +21°C° 0 mm 2 mps 663 mmHg 71%
    04:00 +21°C° 0 mm 2 mps 663 mmHg 73%
    05:00 +21°C° 0 mm 2 mps 663 mmHg 72%
    06:00 +21°C° 0 mm 3 mps 664 mmHg 72%
    07:00 +21°C° 0 mm 3 mps 664 mmHg 71%
    08:00 +25°C° 0 mm 3 mps 665 mmHg 59%
    09:00 +29°C° 0 mm 2 mps 666 mmHg 47%
    10:00 +32°C° 0 mm 2 mps 667 mmHg 36%
    11:00 +35°C° 0 mm 2 mps 666 mmHg 31%
    12:00 +37°C° 0 mm 2 mps 666 mmHg 27%
    13:00 +39°C° 0 mm 1 mps 665 mmHg 22%
    14:00 +38°C° 0 mm 2 mps 665 mmHg 24%
    15:00 +37°C° 0 mm 2 mps 664 mmHg 25%
    16:00 +35°C° 0 mm 2 mps 664 mmHg 27%
    17:00 +34°C° 0 mm 2 mps 664 mmHg 30%
    18:00 +31°C° 0 mm 2 mps 664 mmHg 34%
    19:00 +29°C° 0 mm 2 mps 664 mmHg 38%
    20:00 +28°C° 0 mm 3 mps 664 mmHg 41%
    21:00 +27°C° 0 mm 3 mps 664 mmHg 45%
    22:00 +26°C° 0 mm 3 mps 665 mmHg 49%
    23:00 +25°C° 0 mm 3 mps 664 mmHg 54%

    Day after tomorrow, 23 September, Sunday

    Time Temperature Precipitation Wind Pressure Humidity
    00:00 +24°C° 0 mm 3 mps 664 mmHg 59%
    01:00 +22°C° 0 mm 3 mps 664 mmHg 64%
    02:00 +21°C° 0 mm 3 mps 664 mmHg 67%
    03:00 +21°C° 0 mm 2 mps 663 mmHg 70%
    04:00 +20°C° 0 mm 2 mps 663 mmHg 73%
    05:00 +20°C° 0 mm 3 mps 664 mmHg 72%
    06:00 +20°C° 0 mm 3 mps 664 mmHg 70%
    07:00 +21°C° 0 mm 3 mps 665 mmHg 69%
    08:00 +25°C° 0 mm 3 mps 665 mmHg 57%
    09:00 +28°C° 0 mm 3 mps 666 mmHg 45%
    10:00 +31°C° 0 mm 3 mps 667 mmHg 34%
    11:00 +35°C° 0 mm 2 mps 666 mmHg 29%
    12:00 +37°C° 0 mm 2 mps 666 mmHg 24%
    13:00 +40°C° 0 mm 1 mps 666 mmHg 20%
    14:00 +38°C° 0 mm 2 mps 665 mmHg 22%
    15:00 +37°C° 0 mm 2 mps 664 mmHg 23%
    16:00 +35°C° 0 mm 2 mps 663 mmHg 25%
    17:00 +34°C° 0 mm 2 mps 664 mmHg 29%
    18:00 +31°C° 0 mm 3 mps 664 mmHg 32%
    19:00 +30°C° 0 mm 3 mps 664 mmHg 36%
    20:00 +28°C° 0 mm 3 mps 664 mmHg 40%
    21:00 +27°C° 0 mm 3 mps 665 mmHg 44%
    22:00 +26°C° 0 mm 3 mps 665 mmHg 49%
    23:00 +25°C° 0 mm 3 mps 665 mmHg 56%

    24 September, Monday

    Time Temperature Precipitation Wind Pressure Humidity
    00:00 +24°C° 0 mm 3 mps 665 mmHg 63%
    01:00 +22°C° 0 mm 3 mps 664 mmHg 71%
    02:00 +21°C° 0 mm 3 mps 664 mmHg 74%
    03:00 +20°C° 0 mm 3 mps 664 mmHg 77%
    04:00 +20°C° 0 mm 4 mps 663 mmHg 80%
    05:00 +20°C° 0 mm 3 mps 664 mmHg 79%
    06:00 +20°C° 0 mm 3 mps 665 mmHg 78%
    07:00 +20°C° 0 mm 3 mps 665 mmHg 76%
    08:00 +24°C° 0 mm 3 mps 666 mmHg 65%
    09:00 +26°C° 0 mm 3 mps 666 mmHg 53%
    10:00 +29°C° 0 mm 2 mps 667 mmHg 42%
    11:00 +31°C° 0 mm 2 mps 666 mmHg 37%
    12:00 +34°C° 0 mm 2 mps 665 mmHg 32%
    13:00 +36°C° 0 mm 3 mps 665 mmHg 27%
    14:00 +36°C° 0 mm 3 mps 664 mmHg 28%
    15:00 +35°C° 0 mm 3 mps 664 mmHg 28%
    16:00 +34°C° 0 mm 3 mps 663 mmHg 29%
    17:00 +33°C° 0 mm 3 mps 664 mmHg 32%
    18:00 +30°C° 0 mm 3 mps 664 mmHg 36%
    19:00 +29°C° 0 mm 3 mps 664 mmHg 39%
    20:00 +28°C° 0 mm 4 mps 664 mmHg 43%
    21:00 +26°C° 0 mm 4 mps 665 mmHg 47%
    22:00 +25°C° 0 mm 4 mps 665 mmHg 51%
    23:00 +23°C° 0 mm 4 mps 664 mmHg 57%

    25 September, Tuesday

    Time Temperature Precipitation Wind Pressure Humidity
    00:00 +22°C° 0 mm 3 mps 664 mmHg 63%
    01:00 +21°C° 0 mm 3 mps 664 mmHg 70%
    02:00 +20°C° 0 mm 3 mps 664 mmHg 72%
    03:00 +20°C° 0 mm 3 mps 664 mmHg 74%
    04:00 +20°C° 0 mm 3 mps 664 mmHg 77%
    05:00 +20°C° 0 mm 3 mps 664 mmHg 76%
    06:00 +20°C° 0 mm 3 mps 665 mmHg 74%
    07:00 +20°C° 0 mm 3 mps 665 mmHg 73%
    08:00 +22°C° 0 mm 3 mps 666 mmHg 63%
    09:00 +26°C° 0 mm 3 mps 667 mmHg 52%
    10:00 +29°C° 0 mm 3 mps 667 mmHg 41%
    11:00 +31°C° 0 mm 3 mps 667 mmHg 37%
    12:00 +33°C° 0 mm 3 mps 666 mmHg 33%
    13:00 +35°C° 0 mm 3 mps 665 mmHg 29%
    14:00 +34°C° 0 mm 3 mps 665 mmHg 30%
    15:00 +34°C° 0 mm 2 mps 664 mmHg 31%
    16:00 +32°C° 0 mm 2 mps 664 mmHg 31%
    17:00 +31°C° 0 mm 3 mps 664 mmHg 35%
    18:00 +29°C° 0 mm 3 mps 664 mmHg 38%
    19:00 +28°C° 0 mm 3 mps 664 mmHg 41%
    20:00 +27°C° 0 mm 3 mps 665 mmHg 45%
    21:00 +26°C° 0 mm 3 mps 665 mmHg 48%
    22:00 +25°C° 0 mm 3 mps 665 mmHg 51%
    23:00 +24°C° 0 mm 3 mps 665 mmHg 54%

    26 September, Wednesday

    Time Temperature Precipitation Wind Pressure Humidity
    00:00 +22°C° 0 mm 3 mps 664 mmHg 58%
    01:00 +21°C° 0 mm 2 mps 664 mmHg 61%
    02:00 +21°C° 0 mm 2 mps 664 mmHg 65%
    03:00 +20°C° 0 mm 2 mps 664 mmHg 70%
    04:00 +20°C° 0 mm 2 mps 664 mmHg 74%
    05:00 +20°C° 0 mm 2 mps 664 mmHg 73%
    06:00 +20°C° 0 mm 2 mps 665 mmHg 73%
    07:00 +22°C° 0 mm 1 mps 665 mmHg 72%
    08:00 +25°C° 0 mm 1 mps 666 mmHg 59%
    09:00 +29°C° 0 mm 1 mps 667 mmHg 47%
    10:00 +33°C° 0 mm 1 mps 668 mmHg 34%
    11:00 +35°C° 0 mm 1 mps 667 mmHg 30%
    12:00 +37°C° 0 mm 1 mps 667 mmHg 26%
    13:00 +40°C° 0 mm 1 mps 666 mmHg 22%
    14:00 +37°C° 0.1 mm 1 mps 665 mmHg 25%
    15:00 +36°C° 0.1 mm 2 mps 664 mmHg 28%
    16:00 +34°C° 0.1 mm 2 mps 663 mmHg 30%
    17:00 +31°C° 0.1 mm 2 mps 664 mmHg 34%
    18:00 +30°C° 0.1 mm 2 mps 664 mmHg 38%
    19:00 +28°C° 0.1 mm 2 mps 664 mmHg 43%
    20:00 +27°C° 0 mm 2 mps 664 mmHg 45%
    21:00 +27°C° 0 mm 2 mps 664 mmHg 47%
    22:00 +26°C° 0 mm 2 mps 664 mmHg 49%
    23:00 +25°C° 0 mm 2 mps 664 mmHg 52%
    Show more